Weather History for KCWI - October, 2014

Change the Weather History Date:

Monday, October 27, 2014

  Actual Average Record
Temperature  
Mean Temperature 67 °F -  
Max Temperature 77 °F 60 °F 77 °F (1955)
Min Temperature 57 °F 40 °F 19 °F (1997)
Cooling Degree Days 2    
Growing Degree Days 17 (Base 50)    
Moisture  
Dew Point 53 °F    
Average Humidity 64    
Maximum Humidity 88    
Minimum Humidity 44    
Precipitation  
Precipitation 0.00 in - - ()
Sea Level Pressure  
Sea Level Pressure 29.64 in    
Wind  
Wind Speed 12 mph (SSW)    
Max Wind Speed 22 mph    
Max Gust Speed 28 mph    
Visibility 10 miles    
Events      
Averages and records for this station are not official NWS values.
T = Trace of Precipitation, MM = Missing Value Source: NWS Daily Summary

Daily Weather History Graph

Daily Weather History Graph

Search for Another Location

Airport or City:

Trip Planner

Search our weather history database for the weather conditions in past years. The results will help you decide how hot, cold, wet, or windy it might be!

Date:

Astronomy

Oct. 27, 2014 Rise Set
Actual Time 7:27 AM CDT 6:02 PM CDT
Civil Twilight 6:58 AM CDT 6:30 PM CDT
Nautical Twilight 6:26 AM CDT 7:03 PM CDT
Astronomical Twilight 5:53 AM CDT 7:35 PM CDT
Moon 11:04 AM CDT (10/27) 9:06 PM CDT (10/27)
Length of Visible Light 11h 31m
Length of Day
10h 34m
Waxing Crescent, 15% of the Moon is Illuminated
Oct 27
Waxing Crescent
Oct 30
First Quarter
Nov 6
Full
Nov 14
Last Quarter
Nov 22
New

Hourly Weather History & Observations

Time (CDT) Temp. Dew Point Humidity Pressure Visibility Wind Dir Wind Speed Gust Speed Precip Events Conditions
12:15 AM 57.2 °F 35.6 °F 44% 29.75 in 10.0 mi SE 11.5 mph - N/A   Clear
12:35 AM 57.2 °F 37.4 °F 48% 29.74 in 10.0 mi SE 10.4 mph - N/A   Clear
12:55 AM 57.2 °F 37.4 °F 48% 29.73 in 10.0 mi SSE 12.7 mph - N/A   Clear
1:15 AM 57.2 °F 37.4 °F 48% 29.72 in 10.0 mi SSE 15.0 mph - N/A   Clear
1:35 AM 57.2 °F 39.2 °F 51% 29.72 in 10.0 mi SSE 11.5 mph - N/A   Clear
1:55 AM 57.2 °F 41.0 °F 55% 29.72 in 10.0 mi SSE 10.4 mph - N/A   Clear
2:15 AM 57.2 °F 42.8 °F 59% 29.71 in 10.0 mi SSE 10.4 mph - N/A   Clear
2:35 AM 57.2 °F 42.8 °F 59% 29.71 in 10.0 mi SSE 10.4 mph - N/A   Clear
2:55 AM 57.2 °F 44.6 °F 63% 29.70 in 10.0 mi SSE 10.4 mph - N/A   Clear
3:15 AM 57.2 °F 44.6 °F 63% 29.68 in 10.0 mi SSE 10.4 mph - N/A   Clear
3:35 AM 57.2 °F 46.4 °F 67% 29.68 in 10.0 mi SSE 10.4 mph - N/A   Clear
3:55 AM 57.2 °F 48.2 °F 72% 29.67 in 10.0 mi SSE 9.2 mph - N/A   Clear
4:15 AM 57.2 °F 48.2 °F 72% 29.67 in 10.0 mi South 8.1 mph - N/A   Mostly Cloudy
4:35 AM 57.2 °F 50.0 °F 77% 29.67 in 10.0 mi South 9.2 mph - N/A   Mostly Cloudy
4:55 AM 57.2 °F 51.8 °F 82% 29.66 in 10.0 mi SSE 10.4 mph - N/A   Clear
5:15 AM 59.0 °F 51.8 °F 77% 29.66 in 10.0 mi SSE 9.2 mph - N/A   Clear
5:35 AM 59.0 °F 51.8 °F 77% 29.65 in 10.0 mi South 9.2 mph - N/A   Clear
5:55 AM 59.0 °F 51.8 °F 77% 29.65 in 10.0 mi South 8.1 mph - N/A   Clear
6:15 AM 57.2 °F 53.6 °F 88% 29.65 in 10.0 mi South 6.9 mph - N/A   Clear
6:35 AM 57.2 °F 53.6 °F 88% 29.65 in 10.0 mi South 8.1 mph - N/A   Clear
6:55 AM 60.8 °F 55.4 °F 82% 29.65 in 10.0 mi South 9.2 mph - N/A   Scattered Clouds
7:15 AM 60.8 °F 55.4 °F 82% 29.64 in 10.0 mi South 10.4 mph - N/A   Scattered Clouds
7:35 AM 60.8 °F 55.4 °F 82% 29.64 in 10.0 mi South 9.2 mph - N/A   Clear
7:55 AM 60.8 °F 55.4 °F 82% 29.64 in 10.0 mi South 10.4 mph - N/A   Clear
8:15 AM 62.6 °F 55.4 °F 77% 29.64 in 10.0 mi South 10.4 mph - N/A   Clear
8:35 AM 62.6 °F 57.2 °F 82% 29.64 in 10.0 mi South 12.7 mph - N/A   Clear
8:55 AM 64.4 °F 57.2 °F 77% 29.65 in 10.0 mi SSW 11.5 mph - N/A   Clear
9:15 AM 66.2 °F 57.2 °F 73% 29.64 in 10.0 mi SSW 15.0 mph 18.4 mph N/A   Clear
9:35 AM 66.2 °F 57.2 °F 73% 29.63 in 10.0 mi South 12.7 mph - N/A   Clear
9:55 AM 66.2 °F 57.2 °F 73% 29.63 in 10.0 mi SSW 13.8 mph - N/A   Clear
10:15 AM 68.0 °F 57.2 °F 68% 29.63 in 10.0 mi SSW 18.4 mph 23.0 mph N/A   Clear
10:35 AM 68.0 °F 57.2 °F 68% 29.63 in 10.0 mi SSW 15.0 mph - N/A   Clear
10:55 AM 69.8 °F 59.0 °F 68% 29.62 in 10.0 mi SSW 15.0 mph 20.7 mph N/A   Clear
11:15 AM 71.6 °F 59.0 °F 64% 29.61 in 10.0 mi SW 18.4 mph - N/A   Clear
11:35 AM 73.4 °F 59.0 °F 61% 29.61 in 10.0 mi SSW 19.6 mph 25.3 mph N/A   Clear
11:55 AM 73.4 °F 57.2 °F 57% 29.60 in 10.0 mi SW 18.4 mph 27.6 mph N/A   Clear
12:15 PM 75.2 °F 57.2 °F 53% 29.60 in 10.0 mi SSW 17.3 mph 26.5 mph N/A   Clear
12:35 PM 75.2 °F 57.2 °F 53% 29.59 in 10.0 mi SSW 21.9 mph - N/A   Clear
12:55 PM 75.2 °F 57.2 °F 53% 29.59 in 10.0 mi SW 19.6 mph 25.3 mph N/A   Clear
1:15 PM 75.2 °F 59.0 °F 57% 29.58 in 10.0 mi SW 13.8 mph 19.6 mph N/A   Clear
1:35 PM 75.2 °F 57.2 °F 53% 29.58 in 10.0 mi SSW 19.6 mph 26.5 mph N/A   Partly Cloudy
1:55 PM 77.0 °F 57.2 °F 50% 29.57 in 10.0 mi SW 13.8 mph 20.7 mph N/A   Partly Cloudy
2:15 PM 75.2 °F 59.0 °F 57% 29.57 in 10.0 mi SSW 17.3 mph 23.0 mph N/A   Partly Cloudy
2:35 PM 75.2 °F 57.2 °F 53% 29.56 in 10.0 mi SSW 16.1 mph - N/A   Clear
2:55 PM 75.2 °F 57.2 °F 53% 29.57 in 10.0 mi SW 15.0 mph - N/A   Clear
3:15 PM 75.2 °F 57.2 °F 53% 29.57 in 10.0 mi SW 17.3 mph - N/A   Clear
3:35 PM 73.4 °F 57.2 °F 57% 29.57 in 10.0 mi SSW 19.6 mph - N/A   Clear
3:55 PM 73.4 °F 57.2 °F 57% 29.57 in 10.0 mi SSW 15.0 mph 18.4 mph N/A   Clear
4:15 PM 75.2 °F 57.2 °F 53% 29.57 in 10.0 mi SSW 16.1 mph - N/A   Clear
4:35 PM 73.4 °F 57.2 °F 57% 29.58 in 10.0 mi SSW 18.4 mph - N/A   Clear
4:55 PM 73.4 °F 55.4 °F 53% 29.58 in 10.0 mi SSW 17.3 mph 21.9 mph N/A   Clear
5:15 PM 71.6 °F 55.4 °F 57% 29.58 in 10.0 mi SSW 13.8 mph - N/A   Clear
5:35 PM 71.6 °F 55.4 °F 57% 29.60 in 10.0 mi SSW 16.1 mph 25.3 mph N/A   Clear
5:55 PM 71.6 °F 55.4 °F 57% 29.60 in 10.0 mi SSW 13.8 mph 19.6 mph N/A   Mostly Cloudy
6:15 PM 69.8 °F 55.4 °F 60% 29.60 in 10.0 mi SSW 11.5 mph - N/A   Overcast
6:35 PM 69.8 °F 55.4 °F 60% 29.60 in 10.0 mi SSW 12.7 mph 18.4 mph N/A   Overcast
6:55 PM 68.0 °F 55.4 °F 64% 29.61 in 10.0 mi SSW 13.8 mph - N/A   Scattered Clouds
7:15 PM 69.8 °F 55.4 °F 60% 29.60 in 10.0 mi SSW 10.4 mph - N/A   Clear
7:35 PM 66.2 °F 55.4 °F 68% 29.61 in 10.0 mi SW 6.9 mph - N/A   Clear
7:55 PM 66.2 °F 55.4 °F 68% 29.62 in 10.0 mi SW 5.8 mph - N/A   Clear
8:15 PM 66.2 °F 55.4 °F 68% 29.61 in 10.0 mi SW 8.1 mph - N/A   Clear
8:35 PM 66.2 °F 55.4 °F 68% 29.63 in 10.0 mi SW 10.4 mph - N/A   Partly Cloudy
8:55 PM 66.2 °F 55.4 °F 68% 29.63 in 10.0 mi SW 8.1 mph - N/A   Mostly Cloudy
9:15 PM 68.0 °F 55.4 °F 64% 29.64 in 10.0 mi WSW 11.5 mph - N/A   Mostly Cloudy
9:35 PM 66.2 °F 55.4 °F 68% 29.65 in 10.0 mi West 10.4 mph - N/A   Mostly Cloudy
9:55 PM 64.4 °F 53.6 °F 68% 29.65 in 10.0 mi West 10.4 mph - N/A   Partly Cloudy
10:15 PM 62.6 °F 51.8 °F 68% 29.66 in 10.0 mi West 9.2 mph - N/A   Clear
10:35 PM 62.6 °F 51.8 °F 68% 29.67 in 10.0 mi West 9.2 mph 16.1 mph N/A   Scattered Clouds
10:55 PM 62.6 °F 50.0 °F 63% 29.68 in 10.0 mi West 10.4 mph 16.1 mph N/A   Partly Cloudy
11:15 PM 62.6 °F 48.2 °F 59% 29.69 in 10.0 mi West 11.5 mph 17.3 mph N/A   Partly Cloudy
11:35 PM 62.6 °F 46.4 °F 55% 29.70 in 10.0 mi West 10.4 mph - N/A   Mostly Cloudy
11:55 PM 60.8 °F 44.6 °F 55% 29.71 in 10.0 mi West 12.7 mph 19.6 mph N/A   Scattered Clouds